owner,sensor,date,latitude,longitude,vertical_datum,sea_water_practical_salinity,qcFlag 
SCCF RECON,ioos:station:SCCF:12:1,2009-10-01T00:00:00Z,26.4966,-82.1479,2.165,31.72,1111122 
SCCF RECON,ioos:station:SCCF:12:1,2009-10-01T01:00:00Z,26.4966,-82.1479,2.31,31.89,1111122 
SCCF RECON,ioos:station:SCCF:12:1,2009-10-01T02:00:00Z,26.4966,-82.1479,2.431,32.0,1111122 
SCCF RECON,ioos:station:SCCF:12:1,2009-10-01T03:00:00Z,26.4966,-82.1479,2.524,32.06,1111122 
SCCF RECON,ioos:station:SCCF:12:1,2009-10-01T04:00:00Z,26.4966,-82.1479,2.599,31.97,1111122 
SCCF RECON,ioos:station:SCCF:12:1,2009-10-01T05:00:00Z,26.4966,-82.1479,2.61,31.82,1111122 
SCCF RECON,ioos:station:SCCF:12:1,2009-10-01T06:00:00Z,26.4966,-82.1479,2.538,31.68,1111122 
SCCF RECON,ioos:station:SCCF:12:1,2009-10-01T07:00:00Z,26.4966,-82.1479,2.43,31.2,1111122 
SCCF RECON,ioos:station:SCCF:12:1,2009-10-01T08:00:00Z,26.4966,-82.1479,2.317,31.31,1111122 
SCCF RECON,ioos:station:SCCF:12:1,2009-10-01T09:00:00Z,26.4966,-82.1479,2.226,31.29,1111122 
SCCF RECON,ioos:station:SCCF:12:1,2009-10-01T10:00:00Z,26.4966,-82.1479,2.189,31.2,1111122 
SCCF RECON,ioos:station:SCCF:12:1,2009-10-01T11:00:00Z,26.4966,-82.1479,2.25,31.88,1111122 
SCCF RECON,ioos:station:SCCF:12:1,2009-10-01T12:00:00Z,26.4966,-82.1479,2.321,31.8,1111122 
SCCF RECON,ioos:station:SCCF:12:1,2009-10-01T13:00:00Z,26.4966,-82.1479,2.42,31.87,1111122 
SCCF RECON,ioos:station:SCCF:12:1,2009-10-01T14:00:00Z,26.4966,-82.1479,2.531,31.75,1111122 
SCCF RECON,ioos:station:SCCF:12:1,2009-10-01T15:00:00Z,26.4966,-82.1479,2.6,31.92,1111122 
SCCF RECON,ioos:station:SCCF:12:1,2009-10-01T16:00:00Z,26.4966,-82.1479,2.636,31.93,1111122 
SCCF RECON,ioos:station:SCCF:12:1,2009-10-01T17:00:00Z,26.4966,-82.1479,2.613,31.93,1111122 
SCCF RECON,ioos:station:SCCF:12:1,2009-10-01T18:00:00Z,26.4966,-82.1479,2.532,31.87,1111122 
SCCF RECON,ioos:station:SCCF:12:1,2009-10-01T19:00:00Z,26.4966,-82.1479,2.421,31.79,1111122 
SCCF RECON,ioos:station:SCCF:12:1,2009-10-01T20:00:00Z,26.4966,-82.1479,2.307,31.79,1111122 
SCCF RECON,ioos:station:SCCF:12:1,2009-10-01T21:00:00Z,26.4966,-82.1479,2.215,31.79,1111122 
SCCF RECON,ioos:station:SCCF:12:1,2009-10-01T22:00:00Z,26.4966,-82.1479,2.141,31.8,1111122 
SCCF RECON,ioos:station:SCCF:12:1,2009-10-01T23:00:00Z,26.4966,-82.1479,2.108,31.82,1111122 
SCCF RECON,ioos:station:SCCF:12:1,2009-10-02T00:00:00Z,26.4966,-82.1479,2.14,31.86,1111122 
SCCF RECON,ioos:station:SCCF:12:1,2009-10-02T01:00:00Z,26.4966,-82.1479,2.251,32.02,1111122 
SCCF RECON,ioos:station:SCCF:12:1,2009-10-02T02:00:00Z,26.4966,-82.1479,2.401,32.17,1111122 
SCCF RECON,ioos:station:SCCF:12:1,2009-10-02T03:00:00Z,26.4966,-82.1479,2.531,32.18,1111122 
SCCF RECON,ioos:station:SCCF:12:1,2009-10-02T04:00:00Z,26.4966,-82.1479,2.62,32.17,1111122 
SCCF RECON,ioos:station:SCCF:12:1,2009-10-02T05:00:00Z,26.4966,-82.1479,2.649,32.02,1111122 
SCCF RECON,ioos:station:SCCF:12:1,2009-10-02T06:00:00Z,26.4966,-82.1479,2.587,31.97,1111122 
SCCF RECON,ioos:station:SCCF:12:1,2009-10-02T07:00:00Z,26.4966,-82.1479,2.464,31.95,1111122 
SCCF RECON,ioos:station:SCCF:12:1,2009-10-02T08:00:00Z,26.4966,-82.1479,2.34,31.94,1111122 
SCCF RECON,ioos:station:SCCF:12:1,2009-10-02T09:00:00Z,26.4966,-82.1479,2.23,31.89,1111122 
SCCF RECON,ioos:station:SCCF:12:1,2009-10-02T10:00:00Z,26.4966,-82.1479,2.16,31.89,1111122 
SCCF RECON,ioos:station:SCCF:12:1,2009-10-02T11:00:00Z,26.4966,-82.1479,2.15,32.06,1111122 
SCCF RECON,ioos:station:SCCF:12:1,2009-10-02T12:00:00Z,26.4966,-82.1479,2.21,31.91,1111122 
SCCF RECON,ioos:station:SCCF:12:1,2009-10-02T13:00:00Z,26.4966,-82.1479,2.33,31.96,1111122 
SCCF RECON,ioos:station:SCCF:12:1,2009-10-02T14:00:00Z,26.4966,-82.1479,2.47,32.0,1111122 
SCCF RECON,ioos:station:SCCF:12:1,2009-10-02T15:00:00Z,26.4966,-82.1479,2.58,32.16,1111122 
SCCF RECON,ioos:station:SCCF:12:1,2009-10-02T16:00:00Z,26.4966,-82.1479,2.646,32.15,1111122 
SCCF RECON,ioos:station:SCCF:12:1,2009-10-02T17:00:00Z,26.4966,-82.1479,2.67,32.09,1111122 
SCCF RECON,ioos:station:SCCF:12:1,2009-10-02T18:00:00Z,26.4966,-82.1479,2.62,32.06,1111122 
SCCF RECON,ioos:station:SCCF:12:1,2009-10-02T19:00:00Z,26.4966,-82.1479,2.51,31.96,1111122 
SCCF RECON,ioos:station:SCCF:12:1,2009-10-02T20:00:00Z,26.4966,-82.1479,2.37,31.81,1111122 
SCCF RECON,ioos:station:SCCF:12:1,2009-10-02T21:00:00Z,26.4966,-82.1479,2.249,31.83,1111122 
SCCF RECON,ioos:station:SCCF:12:1,2009-10-02T22:00:00Z,26.4966,-82.1479,2.17,32.06,1111122 
SCCF RECON,ioos:station:SCCF:12:1,2009-10-02T23:00:00Z,26.4966,-82.1479,2.14,32.05,1111122 
SCCF RECON,ioos:station:SCCF:12:1,2009-10-03T00:00:00Z,26.4966,-82.1479,2.15,32.06,1111122 
SCCF RECON,ioos:station:SCCF:12:1,2009-10-03T01:00:00Z,26.4966,-82.1479,2.23,32.06,1111122 
SCCF RECON,ioos:station:SCCF:12:1,2009-10-03T02:00:00Z,26.4966,-82.1479,2.36,32.18,1111122 
SCCF RECON,ioos:station:SCCF:12:1,2009-10-03T03:00:00Z,26.4966,-82.1479,2.493,32.3,1111122 
SCCF RECON,ioos:station:SCCF:12:1,2009-10-03T04:00:00Z,26.4966,-82.1479,2.58,32.28,1111122 
SCCF RECON,ioos:station:SCCF:12:1,2009-10-03T05:00:00Z,26.4966,-82.1479,2.62,32.1,1111122 
SCCF RECON,ioos:station:SCCF:12:1,2009-10-03T06:00:00Z,26.4966,-82.1479,2.6,32.07,1111122 
SCCF RECON,ioos:station:SCCF:12:1,2009-10-03T07:00:00Z,26.4966,-82.1479,2.52,31.95,1111122 
SCCF RECON,ioos:station:SCCF:12:1,2009-10-03T08:00:00Z,26.4966,-82.1479,2.385,31.74,1111122 
SCCF RECON,ioos:station:SCCF:12:1,2009-10-03T09:00:00Z,26.4966,-82.1479,2.25,31.83,1111122 
SCCF RECON,ioos:station:SCCF:12:1,2009-10-03T10:00:00Z,26.4966,-82.1479,2.131,31.9,1111122 
SCCF RECON,ioos:station:SCCF:12:1,2009-10-03T11:00:00Z,26.4966,-82.1479,2.054,31.46,1111122 
SCCF RECON,ioos:station:SCCF:12:1,2009-10-03T12:00:00Z,26.4966,-82.1479,2.021,31.51,1111122 
SCCF RECON,ioos:station:SCCF:12:1,2009-10-03T13:00:00Z,26.4966,-82.1479,2.107,31.55,1111122 
SCCF RECON,ioos:station:SCCF:12:1,2009-10-03T14:00:00Z,26.4966,-82.1479,2.29,31.75,1111122 
SCCF RECON,ioos:station:SCCF:12:1,2009-10-03T15:00:00Z,26.4966,-82.1479,2.461,31.79,1111122 
SCCF RECON,ioos:station:SCCF:12:1,2009-10-03T16:00:00Z,26.4966,-82.1479,2.57,31.73,1111122 
SCCF RECON,ioos:station:SCCF:12:1,2009-10-03T17:00:00Z,26.4966,-82.1479,2.626,31.76,1111122 
SCCF RECON,ioos:station:SCCF:12:1,2009-10-03T18:00:00Z,26.4966,-82.1479,2.62,31.78,1111122 
SCCF RECON,ioos:station:SCCF:12:1,2009-10-03T19:00:00Z,26.4966,-82.1479,2.55,31.61,1111122 
SCCF RECON,ioos:station:SCCF:12:1,2009-10-03T20:00:00Z,26.4966,-82.1479,2.44,31.43,1111122 
SCCF RECON,ioos:station:SCCF:12:1,2009-10-03T21:00:00Z,26.4966,-82.1479,2.319,31.43,1111122 
SCCF RECON,ioos:station:SCCF:12:1,2009-10-03T22:00:00Z,26.4966,-82.1479,2.224,31.53,1111122 
SCCF RECON,ioos:station:SCCF:12:1,2009-10-03T23:00:00Z,26.4966,-82.1479,2.16,31.65,1111122 
SCCF RECON,ioos:station:SCCF:12:1,2009-10-04T00:00:00Z,26.4966,-82.1479,2.14,31.52,1111122 
SCCF RECON,ioos:station:SCCF:12:1,2009-10-04T01:00:00Z,26.4966,-82.1479,2.19,31.66,1111122 
SCCF RECON,ioos:station:SCCF:12:1,2009-10-04T02:00:00Z,26.4966,-82.1479,2.33,31.59,1111122 
SCCF RECON,ioos:station:SCCF:12:1,2009-10-04T03:00:00Z,26.4966,-82.1479,2.49,31.78,1111122 
SCCF RECON,ioos:station:SCCF:12:1,2009-10-04T04:00:00Z,26.4966,-82.1479,2.61,31.72,1111122 
SCCF RECON,ioos:station:SCCF:12:1,2009-10-04T05:00:00Z,26.4966,-82.1479,2.663,31.65,1111122 
SCCF RECON,ioos:station:SCCF:12:1,2009-10-04T06:00:00Z,26.4966,-82.1479,2.649,31.52,1111122 
SCCF RECON,ioos:station:SCCF:12:1,2009-10-04T07:00:00Z,26.4966,-82.1479,2.569,31.58,1111122 
SCCF RECON,ioos:station:SCCF:12:1,2009-10-04T08:00:00Z,26.4966,-82.1479,2.437,31.3,1111122 
SCCF RECON,ioos:station:SCCF:12:1,2009-10-04T09:00:00Z,26.4966,-82.1479,2.29,31.29,1111122 
SCCF RECON,ioos:station:SCCF:12:1,2009-10-04T10:00:00Z,26.4966,-82.1479,2.16,30.95,1111122 
SCCF RECON,ioos:station:SCCF:12:1,2009-10-04T11:00:00Z,26.4966,-82.1479,2.05,30.86,1111122 
SCCF RECON,ioos:station:SCCF:12:1,2009-10-04T12:00:00Z,26.4966,-82.1479,1.976,31.18,1111122 
SCCF RECON,ioos:station:SCCF:12:1,2009-10-04T13:00:00Z,26.4966,-82.1479,1.976,31.36,1111122 
SCCF RECON,ioos:station:SCCF:12:1,2009-10-04T14:00:00Z,26.4966,-82.1479,2.11,31.37,1111122 
SCCF RECON,ioos:station:SCCF:12:1,2009-10-04T15:00:00Z,26.4966,-82.1479,2.309,31.39,1111122 
SCCF RECON,ioos:station:SCCF:12:1,2009-10-04T16:00:00Z,26.4966,-82.1479,2.46,31.43,1111122 
SCCF RECON,ioos:station:SCCF:12:1,2009-10-04T17:00:00Z,26.4966,-82.1479,2.55,31.42,1111122 
SCCF RECON,ioos:station:SCCF:12:1,2009-10-04T18:00:00Z,26.4966,-82.1479,2.584,31.49,1111122 
SCCF RECON,ioos:station:SCCF:12:1,2009-10-04T19:00:00Z,26.4966,-82.1479,2.562,31.39,1111122 
SCCF RECON,ioos:station:SCCF:12:1,2009-10-04T20:00:00Z,26.4966,-82.1479,2.497,31.19,1111122 
SCCF RECON,ioos:station:SCCF:12:1,2009-10-04T21:00:00Z,26.4966,-82.1479,2.409,30.63,1111122 
SCCF RECON,ioos:station:SCCF:12:1,2009-10-04T22:00:00Z,26.4966,-82.1479,2.32,30.18,1111122 
SCCF RECON,ioos:station:SCCF:12:1,2009-10-04T23:00:00Z,26.4966,-82.1479,2.26,30.03,1111122 
SCCF RECON,ioos:station:SCCF:12:1,2009-10-05T00:00:00Z,26.4966,-82.1479,2.23,30.65,1111122 
SCCF RECON,ioos:station:SCCF:12:1,2009-10-05T01:00:00Z,26.4966,-82.1479,2.26,31.0,1111122 
SCCF RECON,ioos:station:SCCF:12:1,2009-10-05T02:00:00Z,26.4966,-82.1479,2.349,31.09,1111122 
SCCF RECON,ioos:station:SCCF:12:1,2009-10-05T03:00:00Z,26.4966,-82.1479,2.499,31.0,1111122 
SCCF RECON,ioos:station:SCCF:12:1,2009-10-05T04:00:00Z,26.4966,-82.1479,2.62,30.91,1111122 
SCCF RECON,ioos:station:SCCF:12:1,2009-10-05T05:00:00Z,26.4966,-82.1479,2.681,30.8,1111122 
SCCF RECON,ioos:station:SCCF:12:1,2009-10-05T06:00:00Z,26.4966,-82.1479,2.69,30.79,1111122 
SCCF RECON,ioos:station:SCCF:12:1,2009-10-05T07:00:00Z,26.4966,-82.1479,2.64,30.62,1111122 
SCCF RECON,ioos:station:SCCF:12:1,2009-10-05T08:00:00Z,26.4966,-82.1479,2.55,30.75,1111122 
SCCF RECON,ioos:station:SCCF:12:1,2009-10-05T09:00:00Z,26.4966,-82.1479,2.406,30.25,1111122 
SCCF RECON,ioos:station:SCCF:12:1,2009-10-05T10:00:00Z,26.4966,-82.1479,2.26,30.24,1111122 
SCCF RECON,ioos:station:SCCF:12:1,2009-10-05T11:00:00Z,26.4966,-82.1479,2.13,30.1,1111122 
SCCF RECON,ioos:station:SCCF:12:1,2009-10-05T12:00:00Z,26.4966,-82.1479,2.02,30.18,1111122 
SCCF RECON,ioos:station:SCCF:12:1,2009-10-05T13:00:00Z,26.4966,-82.1479,1.951,30.36,1111122 
SCCF RECON,ioos:station:SCCF:12:1,2009-10-05T14:00:00Z,26.4966,-82.1479,2.019,30.24,1111122 
SCCF RECON,ioos:station:SCCF:12:1,2009-10-05T15:00:00Z,26.4966,-82.1479,2.21,30.23,1111122 
SCCF RECON,ioos:station:SCCF:12:1,2009-10-05T16:00:00Z,26.4966,-82.1479,2.38,30.13,1111122 
SCCF RECON,ioos:station:SCCF:12:1,2009-10-05T17:00:00Z,26.4966,-82.1479,2.505,30.02,1111122 
SCCF RECON,ioos:station:SCCF:12:1,2009-10-05T18:00:00Z,26.4966,-82.1479,2.571,29.79,1111122 
SCCF RECON,ioos:station:SCCF:12:1,2009-10-05T19:00:00Z,26.4966,-82.1479,2.579,29.64,1111122 
SCCF RECON,ioos:station:SCCF:12:1,2009-10-05T20:00:00Z,26.4966,-82.1479,2.539,29.58,1111122 
SCCF RECON,ioos:station:SCCF:12:1,2009-10-05T21:00:00Z,26.4966,-82.1479,2.47,29.82,1111122 
SCCF RECON,ioos:station:SCCF:12:1,2009-10-05T22:00:00Z,26.4966,-82.1479,2.39,29.84,1111122 
SCCF RECON,ioos:station:SCCF:12:1,2009-10-05T23:00:00Z,26.4966,-82.1479,2.32,29.84,1111122 
SCCF RECON,ioos:station:SCCF:12:1,2009-10-06T00:00:00Z,26.4966,-82.1479,2.28,30.25,1111122 
SCCF RECON,ioos:station:SCCF:12:1,2009-10-06T01:00:00Z,26.4966,-82.1479,2.27,30.16,1111122 
SCCF RECON,ioos:station:SCCF:12:1,2009-10-06T02:00:00Z,26.4966,-82.1479,2.33,29.85,1111122 
SCCF RECON,ioos:station:SCCF:12:1,2009-10-06T03:00:00Z,26.4966,-82.1479,2.45,29.71,1111122 
SCCF RECON,ioos:station:SCCF:12:1,2009-10-06T04:00:00Z,26.4966,-82.1479,2.58,29.83,1111122 
SCCF RECON,ioos:station:SCCF:12:1,2009-10-06T05:00:00Z,26.4966,-82.1479,2.68,29.84,1111122 
SCCF RECON,ioos:station:SCCF:12:1,2009-10-06T06:00:00Z,26.4966,-82.1479,2.72,29.82,1111122 
SCCF RECON,ioos:station:SCCF:12:1,2009-10-06T07:00:00Z,26.4966,-82.1479,2.69,29.83,1111122 
SCCF RECON,ioos:station:SCCF:12:1,2009-10-06T08:00:00Z,26.4966,-82.1479,2.61,29.87,1111122 
SCCF RECON,ioos:station:SCCF:12:1,2009-10-06T09:00:00Z,26.4966,-82.1479,2.48,29.9,1111122 
SCCF RECON,ioos:station:SCCF:12:1,2009-10-06T10:00:00Z,26.4966,-82.1479,2.334,29.84,1111122 
SCCF RECON,ioos:station:SCCF:12:1,2009-10-06T11:00:00Z,26.4966,-82.1479,2.2,29.81,1111122 
SCCF RECON,ioos:station:SCCF:12:1,2009-10-06T12:00:00Z,26.4966,-82.1479,2.073,29.81,1111122 
SCCF RECON,ioos:station:SCCF:12:1,2009-10-06T13:00:00Z,26.4966,-82.1479,1.969,29.81,1111122 
SCCF RECON,ioos:station:SCCF:12:1,2009-10-06T14:00:00Z,26.4966,-82.1479,1.924,29.87,1111122 
SCCF RECON,ioos:station:SCCF:12:1,2009-10-06T15:00:00Z,26.4966,-82.1479,2.011,29.87,1111122 
SCCF RECON,ioos:station:SCCF:12:1,2009-10-06T16:00:00Z,26.4966,-82.1479,2.215,30.02,1111122 
SCCF RECON,ioos:station:SCCF:12:1,2009-10-06T17:00:00Z,26.4966,-82.1479,2.38,30.05,1111122 
SCCF RECON,ioos:station:SCCF:12:1,2009-10-06T18:00:00Z,26.4966,-82.1479,2.48,29.97,1111122 
SCCF RECON,ioos:station:SCCF:12:1,2009-10-06T19:00:00Z,26.4966,-82.1479,2.541,29.93,1111122 
SCCF RECON,ioos:station:SCCF:12:1,2009-10-06T20:00:00Z,26.4966,-82.1479,2.55,29.86,1111122 
SCCF RECON,ioos:station:SCCF:12:1,2009-10-06T21:00:00Z,26.4966,-82.1479,2.5,29.79,1111122 
SCCF RECON,ioos:station:SCCF:12:1,2009-10-06T22:00:00Z,26.4966,-82.1479,2.421,29.76,1111122 
SCCF RECON,ioos:station:SCCF:12:1,2009-10-06T23:00:00Z,26.4966,-82.1479,2.37,29.79,1111122 
SCCF RECON,ioos:station:SCCF:12:1,2009-10-07T00:00:00Z,26.4966,-82.1479,2.34,29.91,1111122 
SCCF RECON,ioos:station:SCCF:12:1,2009-10-07T01:00:00Z,26.4966,-82.1479,2.36,29.83,1111122 
SCCF RECON,ioos:station:SCCF:12:1,2009-10-07T02:00:00Z,26.4966,-82.1479,2.4,29.79,1111122 
SCCF RECON,ioos:station:SCCF:12:1,2009-10-07T03:00:00Z,26.4966,-82.1479,2.48,30.11,1111122 
SCCF RECON,ioos:station:SCCF:12:1,2009-10-07T04:00:00Z,26.4966,-82.1479,2.61,30.15,1111122 
SCCF RECON,ioos:station:SCCF:12:1,2009-10-07T05:00:00Z,26.4966,-82.1479,2.71,30.27,1111122 
SCCF RECON,ioos:station:SCCF:12:1,2009-10-07T06:00:00Z,26.4966,-82.1479,2.75,30.37,1111122 
SCCF RECON,ioos:station:SCCF:12:1,2009-10-07T07:00:00Z,26.4966,-82.1479,2.763,30.29,1111122 
SCCF RECON,ioos:station:SCCF:12:1,2009-10-07T08:00:00Z,26.4966,-82.1479,2.7,30.24,1111122 
SCCF RECON,ioos:station:SCCF:12:1,2009-10-07T09:00:00Z,26.4966,-82.1479,2.59,30.07,1111122 
SCCF RECON,ioos:station:SCCF:12:1,2009-10-07T10:00:00Z,26.4966,-82.1479,2.452,30.01,1111122 
SCCF RECON,ioos:station:SCCF:12:1,2009-10-07T11:00:00Z,26.4966,-82.1479,2.32,30.03,1111122 
SCCF RECON,ioos:station:SCCF:12:1,2009-10-07T12:00:00Z,26.4966,-82.1479,2.2,30.03,1111122 
SCCF RECON,ioos:station:SCCF:12:1,2009-10-07T13:00:00Z,26.4966,-82.1479,2.09,30.03,1111122 
SCCF RECON,ioos:station:SCCF:12:1,2009-10-07T14:00:00Z,26.4966,-82.1479,2.0,30.07,1111122 
SCCF RECON,ioos:station:SCCF:12:1,2009-10-07T15:00:00Z,26.4966,-82.1479,1.98,30.11,1111122 
SCCF RECON,ioos:station:SCCF:12:1,2009-10-07T16:00:00Z,26.4966,-82.1479,2.08,30.33,1111122 
SCCF RECON,ioos:station:SCCF:12:1,2009-10-07T17:00:00Z,26.4966,-82.1479,2.251,30.59,1111122 
SCCF RECON,ioos:station:SCCF:12:1,2009-10-07T18:00:00Z,26.4966,-82.1479,2.371,30.51,1111122 
SCCF RECON,ioos:station:SCCF:12:1,2009-10-07T19:00:00Z,26.4966,-82.1479,2.45,30.57,1111122 
SCCF RECON,ioos:station:SCCF:12:1,2009-10-07T20:00:00Z,26.4966,-82.1479,2.49,30.31,1111122 
SCCF RECON,ioos:station:SCCF:12:1,2009-10-07T21:00:00Z,26.4966,-82.1479,2.48,30.13,1111122 
SCCF RECON,ioos:station:SCCF:12:1,2009-10-07T22:00:00Z,26.4966,-82.1479,2.443,30.08,1111122 
SCCF RECON,ioos:station:SCCF:12:1,2009-10-07T23:00:00Z,26.4966,-82.1479,2.39,30.22,1111122 
SCCF RECON,ioos:station:SCCF:12:1,2009-10-08T00:00:00Z,26.4966,-82.1479,2.35,30.22,1111122 
SCCF RECON,ioos:station:SCCF:12:1,2009-10-08T01:00:00Z,26.4966,-82.1479,2.33,30.22,1111122 
SCCF RECON,ioos:station:SCCF:12:1,2009-10-08T02:00:00Z,26.4966,-82.1479,2.341,30.23,1111122 
SCCF RECON,ioos:station:SCCF:12:1,2009-10-08T03:00:00Z,26.4966,-82.1479,2.4,30.22,1111122 
SCCF RECON,ioos:station:SCCF:12:1,2009-10-08T04:00:00Z,26.4966,-82.1479,2.491,30.4,1111122 
SCCF RECON,ioos:station:SCCF:12:1,2009-10-08T05:00:00Z,26.4966,-82.1479,2.61,30.6,1111122 
SCCF RECON,ioos:station:SCCF:12:1,2009-10-08T06:00:00Z,26.4966,-82.1479,2.696,30.71,1111122 
SCCF RECON,ioos:station:SCCF:12:1,2009-10-08T07:00:00Z,26.4966,-82.1479,2.714,30.58,1111122 
SCCF RECON,ioos:station:SCCF:12:1,2009-10-08T08:00:00Z,26.4966,-82.1479,2.67,30.54,1111122 
SCCF RECON,ioos:station:SCCF:12:1,2009-10-08T09:00:00Z,26.4966,-82.1479,2.59,30.52,1111122 
SCCF RECON,ioos:station:SCCF:12:1,2009-10-08T10:00:00Z,26.4966,-82.1479,2.49,30.39,1111122 
SCCF RECON,ioos:station:SCCF:12:1,2009-10-08T11:00:00Z,26.4966,-82.1479,2.363,30.29,1111122 
SCCF RECON,ioos:station:SCCF:12:1,2009-10-08T12:00:00Z,26.4966,-82.1479,2.24,30.32,1111122 
SCCF RECON,ioos:station:SCCF:12:1,2009-10-08T13:00:00Z,26.4966,-82.1479,2.12,30.3,1111122 
SCCF RECON,ioos:station:SCCF:12:1,2009-10-08T14:00:00Z,26.4966,-82.1479,2.01,30.36,1111122 
SCCF RECON,ioos:station:SCCF:12:1,2009-10-08T15:00:00Z,26.4966,-82.1479,1.923,30.47,1111122 
SCCF RECON,ioos:station:SCCF:12:1,2009-10-08T16:00:00Z,26.4966,-82.1479,1.9,30.46,1111122 
SCCF RECON,ioos:station:SCCF:12:1,2009-10-08T17:00:00Z,26.4966,-82.1479,2.014,30.53,1111122 
SCCF RECON,ioos:station:SCCF:12:1,2009-10-08T18:00:00Z,26.4966,-82.1479,2.16,30.66,1111122 
SCCF RECON,ioos:station:SCCF:12:1,2009-10-08T19:00:00Z,26.4966,-82.1479,2.28,30.9,1111122 
SCCF RECON,ioos:station:SCCF:12:1,2009-10-08T20:00:00Z,26.4966,-82.1479,2.361,30.71,1111122 
SCCF RECON,ioos:station:SCCF:12:1,2009-10-08T21:00:00Z,26.4966,-82.1479,2.419,30.69,1111122 
SCCF RECON,ioos:station:SCCF:12:1,2009-10-08T22:00:00Z,26.4966,-82.1479,2.435,30.5,1111122 
SCCF RECON,ioos:station:SCCF:12:1,2009-10-08T23:00:00Z,26.4966,-82.1479,2.42,30.28,1111122 
SCCF RECON,ioos:station:SCCF:12:1,2009-10-09T00:00:00Z,26.4966,-82.1479,2.38,30.25,1111122 
SCCF RECON,ioos:station:SCCF:12:1,2009-10-09T01:00:00Z,26.4966,-82.1479,2.36,30.26,1111122 
SCCF RECON,ioos:station:SCCF:12:1,2009-10-09T02:00:00Z,26.4966,-82.1479,2.38,30.25,1111122 
SCCF RECON,ioos:station:SCCF:12:1,2009-10-09T03:00:00Z,26.4966,-82.1479,2.43,30.25,1111122 
SCCF RECON,ioos:station:SCCF:12:1,2009-10-09T04:00:00Z,26.4966,-82.1479,2.517,30.3,1111122 
SCCF RECON,ioos:station:SCCF:12:1,2009-10-09T05:00:00Z,26.4966,-82.1479,2.59,30.33,1111122 
SCCF RECON,ioos:station:SCCF:12:1,2009-10-09T06:00:00Z,26.4966,-82.1479,2.645,30.36,1111122 
SCCF RECON,ioos:station:SCCF:12:1,2009-10-09T07:00:00Z,26.4966,-82.1479,2.668,30.31,1111122 
SCCF RECON,ioos:station:SCCF:12:1,2009-10-09T08:00:00Z,26.4966,-82.1479,2.67,30.32,1111122 
SCCF RECON,ioos:station:SCCF:12:1,2009-10-09T09:00:00Z,26.4966,-82.1479,2.66,30.29,1111122 
SCCF RECON,ioos:station:SCCF:12:1,2009-10-09T10:00:00Z,26.4966,-82.1479,2.62,30.3,1111122 
SCCF RECON,ioos:station:SCCF:12:1,2009-10-09T11:00:00Z,26.4966,-82.1479,2.53,30.18,1111122 
SCCF RECON,ioos:station:SCCF:12:1,2009-10-09T12:00:00Z,26.4966,-82.1479,2.42,30.15,1111122 
SCCF RECON,ioos:station:SCCF:12:1,2009-10-09T13:00:00Z,26.4966,-82.1479,2.296,30.03,1111122 
SCCF RECON,ioos:station:SCCF:12:1,2009-10-09T14:00:00Z,26.4966,-82.1479,2.166,30.02,1111122 
SCCF RECON,ioos:station:SCCF:12:1,2009-10-09T15:00:00Z,26.4966,-82.1479,2.056,30.14,1111122 
SCCF RECON,ioos:station:SCCF:12:1,2009-10-09T16:00:00Z,26.4966,-82.1479,1.973,30.18,1111122 
SCCF RECON,ioos:station:SCCF:12:1,2009-10-09T17:00:00Z,26.4966,-82.1479,1.972,30.26,1111122 
SCCF RECON,ioos:station:SCCF:12:1,2009-10-09T18:00:00Z,26.4966,-82.1479,2.081,30.27,1111122 
SCCF RECON,ioos:station:SCCF:12:1,2009-10-09T19:00:00Z,26.4966,-82.1479,2.206,30.28,1111122 
SCCF RECON,ioos:station:SCCF:12:1,2009-10-09T20:00:00Z,26.4966,-82.1479,2.288,30.2,1111122 
SCCF RECON,ioos:station:SCCF:12:1,2009-10-09T21:00:00Z,26.4966,-82.1479,2.34,30.19,1111122 
SCCF RECON,ioos:station:SCCF:12:1,2009-10-09T22:00:00Z,26.4966,-82.1479,2.383,30.14,1111122 
SCCF RECON,ioos:station:SCCF:12:1,2009-10-09T23:00:00Z,26.4966,-82.1479,2.413,30.1,1111122 
SCCF RECON,ioos:station:SCCF:12:1,2009-10-10T00:00:00Z,26.4966,-82.1479,2.43,30.03,1111122 
SCCF RECON,ioos:station:SCCF:12:1,2009-10-10T01:00:00Z,26.4966,-82.1479,2.43,29.99,1111122 
SCCF RECON,ioos:station:SCCF:12:1,2009-10-10T02:00:00Z,26.4966,-82.1479,2.41,29.99,1111122 
SCCF RECON,ioos:station:SCCF:12:1,2009-10-10T03:00:00Z,26.4966,-82.1479,2.418,30.02,1111122 
SCCF RECON,ioos:station:SCCF:12:1,2009-10-10T04:00:00Z,26.4966,-82.1479,2.451,30.02,1111122 
SCCF RECON,ioos:station:SCCF:12:1,2009-10-10T05:00:00Z,26.4966,-82.1479,2.51,30.0,1111122 
SCCF RECON,ioos:station:SCCF:12:1,2009-10-10T06:00:00Z,26.4966,-82.1479,2.579,30.0,1111122 
SCCF RECON,ioos:station:SCCF:12:1,2009-10-10T07:00:00Z,26.4966,-82.1479,2.639,30.0,1111122 
SCCF RECON,ioos:station:SCCF:12:1,2009-10-10T08:00:00Z,26.4966,-82.1479,2.67,30.0,1111122 
SCCF RECON,ioos:station:SCCF:12:1,2009-10-10T09:00:00Z,26.4966,-82.1479,2.666,30.11,1111122 
SCCF RECON,ioos:station:SCCF:12:1,2009-10-10T10:00:00Z,26.4966,-82.1479,2.63,30.1,1111122 
SCCF RECON,ioos:station:SCCF:12:1,2009-10-10T11:00:00Z,26.4966,-82.1479,2.59,30.26,1111122 
SCCF RECON,ioos:station:SCCF:12:1,2009-10-10T12:00:00Z,26.4966,-82.1479,2.52,30.29,1111122 
SCCF RECON,ioos:station:SCCF:12:1,2009-10-10T13:00:00Z,26.4966,-82.1479,2.42,30.26,1111122 
SCCF RECON,ioos:station:SCCF:12:1,2009-10-10T14:00:00Z,26.4966,-82.1479,2.299,30.43,1111122 
SCCF RECON,ioos:station:SCCF:12:1,2009-10-10T15:00:00Z,26.4966,-82.1479,2.169,30.44,1111122 
SCCF RECON,ioos:station:SCCF:12:1,2009-10-10T16:00:00Z,26.4966,-82.1479,2.052,30.38,1111122 
SCCF RECON,ioos:station:SCCF:12:1,2009-10-10T17:00:00Z,26.4966,-82.1479,1.971,30.27,1111122 
SCCF RECON,ioos:station:SCCF:12:1,2009-10-10T18:00:00Z,26.4966,-82.1479,1.983,30.22,1111122 
SCCF RECON,ioos:station:SCCF:12:1,2009-10-10T19:00:00Z,26.4966,-82.1479,2.099,30.26,1111122 
SCCF RECON,ioos:station:SCCF:12:1,2009-10-10T20:00:00Z,26.4966,-82.1479,2.201,30.27,1111122 
SCCF RECON,ioos:station:SCCF:12:1,2009-10-10T21:00:00Z,26.4966,-82.1479,2.28,30.27,1111122 
SCCF RECON,ioos:station:SCCF:12:1,2009-10-10T22:00:00Z,26.4966,-82.1479,2.34,30.28,1111122 
SCCF RECON,ioos:station:SCCF:12:1,2009-10-10T23:00:00Z,26.4966,-82.1479,2.4,30.31,1111122 
SCCF RECON,ioos:station:SCCF:12:1,2009-10-11T00:00:00Z,26.4966,-82.1479,2.43,30.29,1111122 
SCCF RECON,ioos:station:SCCF:12:1,2009-10-11T01:00:00Z,26.4966,-82.1479,2.47,30.42,1111122 
SCCF RECON,ioos:station:SCCF:12:1,2009-10-11T02:00:00Z,26.4966,-82.1479,2.48,30.53,1111122 
SCCF RECON,ioos:station:SCCF:12:1,2009-10-11T03:00:00Z,26.4966,-82.1479,2.452,30.51,1111122 
SCCF RECON,ioos:station:SCCF:12:1,2009-10-11T04:00:00Z,26.4966,-82.1479,2.44,30.51,1111122 
SCCF RECON,ioos:station:SCCF:12:1,2009-10-11T05:00:00Z,26.4966,-82.1479,2.45,30.5,1111122 
SCCF RECON,ioos:station:SCCF:12:1,2009-10-11T06:00:00Z,26.4966,-82.1479,2.48,30.48,1111122 
SCCF RECON,ioos:station:SCCF:12:1,2009-10-11T07:00:00Z,26.4966,-82.1479,2.51,30.36,1111122 
SCCF RECON,ioos:station:SCCF:12:1,2009-10-11T08:00:00Z,26.4966,-82.1479,2.56,30.39,1111122 
SCCF RECON,ioos:station:SCCF:12:1,2009-10-11T09:00:00Z,26.4966,-82.1479,2.593,30.38,1111122 
SCCF RECON,ioos:station:SCCF:12:1,2009-10-11T10:00:00Z,26.4966,-82.1479,2.61,30.34,1111122 
SCCF RECON,ioos:station:SCCF:12:1,2009-10-11T11:00:00Z,26.4966,-82.1479,2.61,30.38,1111122 
SCCF RECON,ioos:station:SCCF:12:1,2009-10-11T12:00:00Z,26.4966,-82.1479,2.588,30.4,1111122 
SCCF RECON,ioos:station:SCCF:12:1,2009-10-11T13:00:00Z,26.4966,-82.1479,2.521,30.41,1111122 
SCCF RECON,ioos:station:SCCF:12:1,2009-10-11T14:00:00Z,26.4966,-82.1479,2.418,30.4,1111122 
SCCF RECON,ioos:station:SCCF:12:1,2009-10-11T15:00:00Z,26.4966,-82.1479,2.291,30.38,1111122 
SCCF RECON,ioos:station:SCCF:12:1,2009-10-11T16:00:00Z,26.4966,-82.1479,2.17,30.38,1111122 
SCCF RECON,ioos:station:SCCF:12:1,2009-10-11T17:00:00Z,26.4966,-82.1479,2.055,30.46,1111122 
SCCF RECON,ioos:station:SCCF:12:1,2009-10-11T18:00:00Z,26.4966,-82.1479,1.962,30.43,1111122 